Tracking 17938 objects as of 21-February-2017
HD Live streaming from Space Station
objects crossing your sky now

OPS 6182 (DMSP 5D-1 F2)

Track OPS 6182 (DMSP 5D-1 F2) now!
10-day predictions
OPS 6182 (DMSP 5D-1 F2) is classified as:


NORAD ID: 10820
Int'l Code: 1978-042A
Perigee: 774.8 km
Apogee: 789.1 km
Inclination: 98.6 °
Period: 100.3 minutes
Semi major axis: 7152 km
RCS: 4.1055 m2 (large)
Launch date: May 1, 1978
Source: United States (US)
Launch site: AIR FORCE WESTERN TEST RANGE (AFWTR)
Your satellite tracking list
Your tracking list is empty





NASA's NSSDC Master Catalog

Two Line Element Set (TLE):
1 10820U 78042A   17051.64816383  .00000070  00000-0  39814-4 0  9991
2 10820  98.5610 240.8353 0009976  33.6342 326.5474 14.35068072 24631
Source of the keplerian elements: AFSPC